Change the Weather History Date:

Thursday, August 23, 2012

  Actual Average (KTRI) Record (KTRI)
Temperature  
Mean Temperature 70 °F 74 °F  
Max Temperature 84 °F 85 °F 99 °F (2007)
Min Temperature 57 °F 62 °F 49 °F (1997)
Degree Days  
Heating Degree Days 0 0  
Month to date heating degree days 0  
Since 1 June heating degree days 11  
Since 1 July heating degree days 0  
Cooling Degree Days 6 9  
Month to date cooling degree days 209  
Year to date cooling degree days 787  
Since 1 June cooling degree days 714  
Growing Degree Days 20 (Base 50)    
Moisture  
Dew Point 59 °F    
Average Humidity 73    
Maximum Humidity 100    
Minimum Humidity 39    
Precipitation  
Precipitation 0.00 in 0.10 in 1.49 in (1970)
Month to date precipitation 2.68  
Year to date precipitation 28.66  
Snow  
Snow 0.00 in 0.00 in - ()
Month to date snowfall 0.0  
Since 1 June snowfall 0.0  
Since 1 July snowfall 0.0  
Snow Depth -    
Sea Level Pressure  
Sea Level Pressure 30.17 in    
Wind  
Wind Speed 2 mph (ENE)    
Max Wind Speed 6 mph    
Max Gust Speed -    
Visibility 10 miles    
Events Rain    
T = Trace of Precipitation, MM = Missing Value Source: NWS Daily Summary

Daily Weather History Graph

Daily Weather History Graph

Search for Another Location

Airport or City:

Trip Planner

Search our weather history database for the weather conditions in past years. The results will help you decide how hot, cold, wet, or windy it might be!

Date:

Astronomy

Aug. 23, 2012 Rise Set
Actual Time 6:53 AM EDT 8:08 PM EDT
Civil Twilight 6:26 AM EDT 8:35 PM EDT
Nautical Twilight 5:54 AM EDT 9:06 PM EDT
Astronomical Twilight 5:21 AM EDT 9:40 PM EDT
Moon 1:25 PM EDT (8/23) 11:49 PM EDT (8/23)
Length of Visible Light 14h 08m
Length of Day
13h 15m
Waxing Crescent, 40% of the Moon is Illuminated
Aug 23
Waxing Crescent
Aug 24
First Quarter
Aug 31
Full
Sep 8
Last Quarter
Sep 15
New

Hourly Weather History & Observations

Time (EDT) Temp. Heat Index Dew Point Humidity Pressure Visibility Wind Dir Wind Speed Gust Speed Precip Events Conditions
12:35 AM 60.8 °F - 57.2 °F 88% 30.18 in 10.0 mi ENE 3.5 mph - N/A   Scattered Clouds
12:55 AM 60.8 °F - 57.2 °F 88% 30.17 in 10.0 mi Calm Calm - N/A   Clear
1:15 AM 60.8 °F - 57.2 °F 88% 30.17 in 10.0 mi ENE 3.5 mph - N/A   Scattered Clouds
1:35 AM 60.8 °F - 57.2 °F 88% 30.17 in 10.0 mi ENE 5.8 mph - N/A   Mostly Cloudy
1:55 AM 60.8 °F - 57.2 °F 88% 30.17 in 10.0 mi ENE 3.5 mph - N/A   Scattered Clouds
2:15 AM 62.6 °F - 57.2 °F 82% 30.17 in 10.0 mi Calm Calm - N/A   Scattered Clouds
2:35 AM 62.6 °F - 57.2 °F 82% 30.17 in 10.0 mi ENE 5.8 mph - N/A   Mostly Cloudy
2:55 AM 62.6 °F - 57.2 °F 82% 30.17 in 10.0 mi ENE 3.5 mph - N/A   Overcast
3:15 AM 62.6 °F - 57.2 °F 82% 30.17 in 10.0 mi NE 4.6 mph - N/A   Overcast
3:35 AM 62.6 °F - 57.2 °F 82% 30.17 in 10.0 mi ENE 4.6 mph - N/A   Overcast
3:55 AM 62.6 °F - 57.2 °F 82% 30.17 in 10.0 mi NE 3.5 mph - N/A   Overcast
4:15 AM 62.6 °F - 57.2 °F 82% 30.17 in 10.0 mi Calm Calm - N/A   Overcast
4:35 AM 62.6 °F - 57.2 °F 82% 30.17 in 10.0 mi Calm Calm - N/A   Overcast
4:55 AM 62.6 °F - 57.2 °F 82% 30.17 in 10.0 mi Calm Calm - N/A   Mostly Cloudy
5:15 AM 60.8 °F - 57.2 °F 88% 30.17 in 10.0 mi Calm Calm - N/A   Partly Cloudy
5:35 AM 60.8 °F - 57.2 °F 88% 30.18 in 10.0 mi Calm Calm - N/A   Clear
5:55 AM 60.8 °F - 57.2 °F 88% 30.18 in 10.0 mi East 3.5 mph - N/A   Clear
6:15 AM 57.2 °F - 57.2 °F 100% 30.18 in 9.0 mi Calm Calm - N/A   Clear
6:35 AM 57.2 °F - 57.2 °F 100% 30.19 in 8.0 mi NE 3.5 mph - N/A   Clear
6:55 AM 57.2 °F - 57.2 °F 100% 30.19 in 10.0 mi Calm Calm - N/A   Partly Cloudy
7:15 AM 59.0 °F - 57.2 °F 94% 30.19 in 10.0 mi ENE 4.6 mph - N/A   Clear
7:35 AM 60.8 °F - 57.2 °F 88% 30.20 in 10.0 mi Variable 3.5 mph - N/A   Clear
7:55 AM 60.8 °F - 57.2 °F 88% 30.20 in 8.0 mi NE 4.6 mph - N/A Rain Light Rain
8:15 AM 62.6 °F - 59.0 °F 88% 30.21 in 10.0 mi Calm Calm - N/A   Clear
8:35 AM 64.4 °F - 59.0 °F 83% 30.21 in 10.0 mi ENE 3.5 mph - N/A   Clear
8:55 AM 66.2 °F - 60.8 °F 83% 30.21 in 10.0 mi East 3.5 mph - N/A   Clear
9:15 AM 66.2 °F - 60.8 °F 83% 30.21 in 10.0 mi Calm Calm - N/A   Clear
9:35 AM 68.0 °F - 60.8 °F 78% 30.21 in 10.0 mi Calm Calm - N/A   Partly Cloudy
9:55 AM 69.8 °F - 60.8 °F 73% 30.21 in 10.0 mi Calm Calm - N/A   Partly Cloudy
10:15 AM 71.6 °F - 60.8 °F 69% 30.21 in 10.0 mi Calm Calm - N/A   Partly Cloudy
10:35 AM 73.4 °F - 60.8 °F 65% 30.21 in 10.0 mi Calm Calm - N/A   Clear
10:55 AM 75.2 °F - 60.8 °F 61% 30.21 in 10.0 mi Calm Calm - N/A   Clear
11:15 AM 75.2 °F - 60.8 °F 61% 30.21 in 10.0 mi SE 3.5 mph - N/A   Clear
11:35 AM 75.2 °F - 60.8 °F 61% 30.20 in 10.0 mi Calm Calm - N/A   Clear
11:55 AM 75.2 °F - 59.0 °F 57% 30.20 in 10.0 mi Calm Calm - N/A   Clear
12:15 PM 78.8 °F - 59.0 °F 51% 30.20 in 10.0 mi Calm Calm - N/A   Clear
12:35 PM 80.6 °F 80.8 °F 57.2 °F 45% 30.19 in 10.0 mi West 4.6 mph - N/A   Clear
12:55 PM 80.6 °F 81.1 °F 59.0 °F 48% 30.19 in 10.0 mi WSW 4.6 mph - N/A   Clear
1:35 PM 82.4 °F 82.9 °F 60.8 °F 48% 30.18 in 10.0 mi Variable 4.6 mph - N/A   Mostly Cloudy
1:55 PM 78.8 °F - 53.6 °F 42% 30.17 in 10.0 mi WNW 3.5 mph - N/A   Mostly Cloudy
2:15 PM 80.6 °F 81.5 °F 60.8 °F 51% 30.16 in 10.0 mi Variable 3.5 mph - N/A   Partly Cloudy
2:35 PM 84.2 °F 83.8 °F 59.0 °F 42% 30.16 in 10.0 mi West 5.8 mph - N/A   Scattered Clouds
2:55 PM 80.6 °F 81.1 °F 59.0 °F 48% 30.15 in 10.0 mi Calm Calm - N/A   Overcast
3:15 PM 80.6 °F 80.8 °F 57.2 °F 45% 30.15 in 10.0 mi NW 3.5 mph - N/A   Scattered Clouds
3:35 PM 82.4 °F 81.7 °F 55.4 °F 39% 30.14 in 10.0 mi Calm Calm - N/A   Clear
3:55 PM 80.6 °F 80.8 °F 57.2 °F 45% 30.14 in 10.0 mi Calm Calm - N/A   Scattered Clouds
4:15 PM 82.4 °F 82.5 °F 59.0 °F 45% 30.13 in 10.0 mi NNW 3.5 mph - N/A   Partly Cloudy
4:35 PM 82.4 °F 81.7 °F 55.4 °F 39% 30.13 in 10.0 mi Calm Calm - N/A   Clear
4:55 PM 82.4 °F 82.0 °F 57.2 °F 42% 30.13 in 10.0 mi ENE 3.5 mph - N/A   Scattered Clouds
5:15 PM 80.6 °F 80.8 °F 57.2 °F 45% 30.13 in 10.0 mi Calm Calm - N/A   Partly Cloudy
5:35 PM 78.8 °F - 62.6 °F 57% 30.13 in 10.0 mi Calm Calm - N/A   Clear
5:55 PM 78.8 °F - 60.8 °F 54% 30.13 in 10.0 mi ESE 4.6 mph - N/A   Clear
6:15 PM 77.0 °F - 60.8 °F 57% 30.14 in 10.0 mi Variable 4.6 mph - N/A   Scattered Clouds
6:35 PM 77.0 °F - 62.6 °F 61% 30.14 in 10.0 mi Calm Calm - N/A   Mostly Cloudy
6:55 PM 75.2 °F - 62.6 °F 65% 30.13 in 10.0 mi East 3.5 mph - N/A   Scattered Clouds
7:15 PM 75.2 °F - 60.8 °F 61% 30.13 in 10.0 mi Calm Calm - N/A   Clear
7:35 PM 73.4 °F - 64.4 °F 73% 30.13 in 10.0 mi Calm Calm - N/A   Clear
7:55 PM 71.6 °F - 62.6 °F 73% 30.13 in 10.0 mi Calm Calm - N/A   Mostly Cloudy
8:15 PM 69.8 °F - 62.6 °F 78% 30.14 in 10.0 mi Calm Calm - N/A   Partly Cloudy
8:35 PM 68.0 °F - 62.6 °F 83% 30.14 in 10.0 mi Calm Calm - N/A   Clear
8:55 PM 66.2 °F - 62.6 °F 88% 30.15 in 10.0 mi Calm Calm - N/A   Partly Cloudy
9:15 PM 64.4 °F - 62.6 °F 94% 30.16 in 10.0 mi Calm Calm - N/A   Mostly Cloudy
9:35 PM 68.0 °F - 62.6 °F 83% 30.17 in 10.0 mi Calm Calm - N/A   Overcast
9:55 PM 66.2 °F - 62.6 °F 88% 30.17 in 10.0 mi Calm Calm - N/A   Mostly Cloudy
10:15 PM 64.4 °F - 62.6 °F 94% 30.18 in 10.0 mi Calm Calm - N/A   Clear
10:35 PM 64.4 °F - 62.6 °F 94% 30.18 in 10.0 mi Calm Calm - N/A   Partly Cloudy
10:55 PM 64.4 °F - 60.8 °F 88% 30.18 in 10.0 mi ENE 3.5 mph - N/A   Clear
11:15 PM 64.4 °F - 60.8 °F 88% 30.19 in 10.0 mi ENE 4.6 mph - N/A   Scattered Clouds
11:35 PM 64.4 °F - 60.8 °F 88% 30.19 in 10.0 mi NE 3.5 mph - N/A   Scattered Clouds
11:55 PM 64.4 °F - 60.8 °F 88% 30.19 in 10.0 mi Calm Calm - N/A   Partly Cloudy